Powrót do katalogu

COSMOS 839 DEB

AktywnyLEO
NORAD 10615·DEBRIS·🇷🇺 Russia

Wystrzelony Jul 8, 1976 z Plesetsk Cosmodrome

Loading…

Następne Przeloty (najbliższe 24 godziny)

TLE

ŚwieżeSource: Space-Track

Epoka: Sep 14, 2026, 07:55 UTC

1 10615U 76067AP  26257.33040037  .00000493  00000-0  13514-2 0  9993
2 10615  65.9979 224.5548 0663301 310.7073 206.8782 12.60696067569703

Śledź COSMOS 839 DEB w czasie rzeczywistym z AllMySat

Download on the App Store